Find Starlink 31233

NORAD ID: 58826 Int'l Des: 2024-017 Owner: SPXS Country: US Constellation: starlink operational
LEOCIRCULAR

Live Position

Loading 3D Globe...

About Starlink 31233

Description loading...

Upcoming Passes

Passes for default location (London). Set your location on the main map for personalized predictions.

Altitude History

Loading altitude history...

Two-Line Element Set

1 58826U 24017A 26122.16072917 .00000035 00000-0 13298-4 0 9994
2 58826 53.1598 315.9025 0001175 81.2902 278.8232 15.30191754128361
Epoch: May 2, 2026 • Age: 4 hours

Current Status

Altitude 479.5 km
Velocity 7.63 km/s
Sub-Earth Point -14.60°S, 168.25°E
Launch Date Jan 24, 2024
Age 2.2 years
Type internet

Technical Details

Classification Payload
Mass 730.00 kg
Dry Mass 700.00 kg
Total Mass 730.00 kg
Length 0.30 m
Diameter 4.10 m
Span 29.00 m
Shape Box + pan
Manufacturer SPXS
Bus Type Starlink V2M
Phase Status In Orbit
Owner/State SPXS/US

Most Searched